Tracking 19651 objects as of 22-Apr-2019
HD Live streaming from Space Station
objects crossing your sky now

ARIANE 42L R/B

Track ARIANE 42L R/B now!
10-day predictions


NORAD ID: 25586
Int'l Code: 1998-075B
Perigee: 214.1 km
Apogee: 17,042.0 km
Inclination: 7.6 °
Period: 304.7 minutes
Semi major axis: 14999 km
RCS: 21.3079 m2 (large)
Launch date: December 22, 1998
Source: France (FR)
Launch site: FRENCH GUIANA (FRGUI)

Note: This is a ROCKET BODY
aabbcc
Your satellite tracking list
Your tracking list is empty




NASA's NSSDC Master Catalog

Two Line Element Set (TLE):
1 25586U 98075B   19112.01118486  .00034211  00000-0  10702-2 0  9991
2 25586   7.5614  15.0251 5609647 199.4233 125.3259  4.72612965260684
Source of the keplerian elements: AFSPC